N77LD KTEX-KMKC

Flight info

Callsign N77LD
Flight time 2h 13m
Altitude 27000
Route DCT ETL DCT CEZ DCT ALS J110 FRACA DCT EMP JHAWK8
Aircraft SF50/L-BDGRSWY/LB2U2

Departure

Time 2026-04-30 00:34
Airport Telluride Regional Airport (KTEX)

Arrival

Time 2026-04-30 02:47
Airport Charles B. Wheeler Downtown Airport (KMKC)
Time Latitude Longitude Altitude Speed Heading
2026-04-30 00:10 37.95416 -107.90215 9052 ft 0 kts 194°
2026-04-30 00:26 37.95413 -107.90216 9042 ft 3 kts 195°
2026-04-30 00:26 37.95407 -107.90219 9052 ft 0 kts 201°
2026-04-30 00:26 37.95406 -107.90219 9052 ft 1 kts 201°
2026-04-30 00:27 37.95371 -107.90229 9052 ft 8 kts 142°
2026-04-30 00:27 37.95337 -107.90120 9052 ft 17 kts 105°
2026-04-30 00:27 37.95310 -107.90002 9055 ft 11 kts 106°
2026-04-30 00:27 37.95290 -107.89910 9059 ft 11 kts 105°
2026-04-30 00:28 37.95270 -107.89809 9063 ft 14 kts 104°
2026-04-30 00:28 37.95242 -107.89690 9069 ft 7 kts 118°
2026-04-30 00:28 37.95241 -107.89687 9069 ft 0 kts 124°
2026-04-30 00:31 37.95221 -107.89668 9070 ft 10 kts 164°
2026-04-30 00:31 37.95161 -107.89682 9070 ft 8 kts 197°
2026-04-30 00:32 37.95137 -107.89717 9068 ft 0 kts 285°
2026-04-30 00:32 37.95137 -107.89720 9068 ft 4 kts 285°
2026-04-30 00:32 37.95187 -107.89951 9056 ft 50 kts 285°
2026-04-30 00:32 37.95314 -107.90558 9027 ft 91 kts 285°
2026-04-30 00:33 37.95510 -107.91454 9049 ft 116 kts 285°
2026-04-30 00:33 37.95700 -107.92444 9388 ft 112 kts 287°
2026-04-30 00:33 37.95942 -107.93370 9551 ft 115 kts 288°
2026-04-30 00:33 37.96221 -107.94431 9559 ft 139 kts 289°
2026-04-30 00:34 37.96568 -107.95610 9977 ft 151 kts 290°
2026-04-30 00:34 37.96941 -107.96957 10135 ft 174 kts 288°
2026-04-30 00:34 37.97322 -107.98482 10451 ft 183 kts 288°
2026-04-30 00:34 37.97701 -108.00009 10830 ft 182 kts 288°
2026-04-30 00:35 37.98092 -108.01552 11220 ft 185 kts 288°
2026-04-30 00:35 37.98473 -108.03106 11712 ft 184 kts 288°
2026-04-30 00:35 37.98853 -108.04651 12086 ft 183 kts 287°
2026-04-30 00:35 37.99239 -108.06197 12428 ft 185 kts 287°
2026-04-30 00:36 37.99627 -108.07760 12796 ft 186 kts 287°
2026-04-30 00:36 38.00014 -108.09323 13180 ft 187 kts 287°
2026-04-30 00:36 38.00402 -108.10905 13540 ft 189 kts 286°
2026-04-30 00:36 38.00795 -108.12499 13898 ft 189 kts 287°
2026-04-30 00:37 38.01190 -108.14103 14207 ft 191 kts 287°
2026-04-30 00:37 38.01583 -108.15713 14531 ft 192 kts 286°
2026-04-30 00:37 38.01979 -108.17331 14849 ft 193 kts 287°
2026-04-30 00:37 38.02226 -108.18996 15139 ft 194 kts 266°
2026-04-30 00:38 38.01730 -108.20574 15471 ft 198 kts 234°
2026-04-30 00:38 38.00607 -108.21603 15792 ft 203 kts 208°
2026-04-30 00:38 37.99305 -108.22256 16075 ft 206 kts 204°
2026-04-30 00:38 37.98014 -108.22920 16413 ft 206 kts 205°
2026-04-30 00:39 37.96700 -108.23645 16738 ft 206 kts 206°
2026-04-30 00:39 37.95393 -108.24391 17073 ft 207 kts 207°
2026-04-30 00:39 37.94070 -108.25149 17383 ft 208 kts 207°
2026-04-30 00:39 37.92750 -108.25897 17700 ft 209 kts 206°
2026-04-30 00:40 37.91416 -108.26655 18031 ft 210 kts 207°
2026-04-30 00:40 37.90084 -108.27410 18333 ft 212 kts 206°
2026-04-30 00:40 37.88740 -108.28170 18648 ft 212 kts 207°
2026-04-30 00:40 37.87395 -108.28938 18949 ft 212 kts 207°
2026-04-30 00:41 37.86065 -108.29691 19239 ft 213 kts 207°
2026-04-30 00:41 37.84709 -108.30447 19543 ft 213 kts 209°
2026-04-30 00:41 37.83364 -108.31232 19835 ft 213 kts 210°
2026-04-30 00:41 37.82014 -108.32003 20156 ft 213 kts 210°
2026-04-30 00:42 37.80669 -108.32759 20477 ft 213 kts 210°
2026-04-30 00:42 37.79310 -108.33525 20805 ft 213 kts 211°
2026-04-30 00:42 37.77961 -108.34287 21147 ft 212 kts 211°
2026-04-30 00:42 37.76643 -108.35033 21491 ft 210 kts 212°
2026-04-30 00:43 37.75315 -108.35783 21844 ft 208 kts 212°
2026-04-30 00:43 37.74001 -108.36524 22184 ft 207 kts 213°
2026-04-30 00:43 37.72695 -108.37262 22532 ft 205 kts 213°
2026-04-30 00:43 37.71405 -108.37990 22899 ft 202 kts 214°
2026-04-30 00:44 37.70117 -108.38712 23251 ft 201 kts 214°
2026-04-30 00:44 37.68845 -108.39432 23583 ft 200 kts 215°
2026-04-30 00:44 37.67582 -108.40143 23878 ft 198 kts 215°
2026-04-30 00:44 37.66329 -108.40851 24182 ft 196 kts 215°
2026-04-30 00:45 37.65088 -108.41551 24478 ft 194 kts 216°
2026-04-30 00:45 37.63859 -108.42243 24766 ft 193 kts 216°
2026-04-30 00:45 37.62637 -108.42931 25044 ft 192 kts 216°
2026-04-30 00:45 37.61427 -108.43612 25343 ft 190 kts 217°
2026-04-30 00:46 37.60228 -108.44289 25627 ft 188 kts 217°
2026-04-30 00:46 37.59038 -108.44961 25925 ft 187 kts 217°
2026-04-30 00:46 37.57871 -108.45616 26208 ft 185 kts 217°
2026-04-30 00:46 37.56699 -108.46276 26483 ft 184 kts 218°
2026-04-30 00:47 37.55535 -108.46929 26760 ft 183 kts 218°
2026-04-30 00:47 37.54380 -108.47580 27017 ft 183 kts 218°
2026-04-30 00:47 37.53180 -108.48266 27029 ft 195 kts 218°
2026-04-30 00:47 37.51908 -108.48982 27035 ft 206 kts 217°
2026-04-30 00:48 37.50544 -108.49684 27040 ft 220 kts 211°
2026-04-30 00:48 37.49013 -108.50100 27048 ft 237 kts 201°
2026-04-30 00:48 37.47274 -108.50165 27050 ft 256 kts 190°
2026-04-30 00:48 37.45482 -108.49784 27050 ft 276 kts 178°
2026-04-30 00:49 37.43634 -108.48854 27056 ft 296 kts 165°
2026-04-30 00:49 37.41902 -108.47335 27055 ft 315 kts 149°
2026-04-30 00:49 37.40413 -108.45197 27052 ft 333 kts 133°
2026-04-30 00:49 37.39363 -108.42546 27040 ft 346 kts 115°
2026-04-30 00:50 37.38891 -108.39551 27030 ft 353 kts 96°
2026-04-30 00:50 37.38870 -108.36463 27030 ft 353 kts 91°
2026-04-30 00:50 37.38880 -108.33393 27025 ft 353 kts 92°
2026-04-30 00:50 37.38859 -108.30292 27017 ft 354 kts 92°
2026-04-30 00:51 37.38832 -108.27242 27013 ft 356 kts 92°
2026-04-30 00:51 37.38816 -108.24120 27007 ft 357 kts 92°
2026-04-30 00:51 37.38803 -108.20952 27002 ft 358 kts 92°
2026-04-30 00:51 37.38781 -108.17863 27003 ft 360 kts 92°
2026-04-30 00:52 37.38758 -108.14722 27000 ft 361 kts 92°
2026-04-30 00:52 37.38737 -108.11557 27009 ft 361 kts 92°
2026-04-30 00:52 37.38709 -108.08389 27006 ft 362 kts 91°
2026-04-30 00:52 37.38692 -108.05223 27019 ft 363 kts 92°
2026-04-30 00:53 37.38670 -108.02045 27020 ft 364 kts 92°
2026-04-30 00:53 37.38642 -107.98855 27021 ft 366 kts 92°
2026-04-30 00:53 37.38615 -107.95657 27020 ft 365 kts 91°
2026-04-30 00:53 37.38590 -107.92476 27034 ft 365 kts 92°
2026-04-30 00:54 37.38561 -107.89271 27034 ft 366 kts 92°
2026-04-30 00:54 37.38532 -107.86071 27035 ft 366 kts 91°
2026-04-30 00:54 37.38504 -107.82920 27038 ft 365 kts 92°
2026-04-30 00:54 37.38472 -107.79734 27042 ft 366 kts 92°
2026-04-30 00:55 37.38441 -107.76534 27042 ft 365 kts 92°
2026-04-30 00:55 37.38410 -107.73350 27045 ft 364 kts 92°
2026-04-30 00:55 37.38343 -107.66950 27039 ft 367 kts 92°
2026-04-30 00:56 37.38309 -107.63749 27039 ft 369 kts 92°
2026-04-30 00:56 37.38273 -107.60517 27031 ft 368 kts 92°
2026-04-30 00:56 37.38237 -107.57361 27028 ft 367 kts 92°
2026-04-30 00:56 37.38200 -107.54140 27027 ft 367 kts 92°
2026-04-30 00:57 37.38161 -107.50932 27023 ft 368 kts 92°
2026-04-30 00:57 37.38117 -107.47710 27021 ft 369 kts 92°
2026-04-30 00:57 37.38083 -107.44487 27015 ft 368 kts 92°
2026-04-30 00:57 37.38045 -107.41268 27025 ft 368 kts 92°
2026-04-30 00:58 37.38001 -107.38067 27037 ft 368 kts 92°
2026-04-30 00:58 37.37957 -107.34846 27044 ft 368 kts 92°
2026-04-30 00:58 37.37915 -107.31627 27057 ft 369 kts 92°
2026-04-30 00:58 37.37873 -107.28412 27064 ft 368 kts 92°
2026-04-30 00:59 37.37835 -107.25188 27078 ft 368 kts 92°
2026-04-30 00:59 37.37780 -107.22011 27085 ft 369 kts 92°
2026-04-30 00:59 37.37729 -107.18793 27101 ft 367 kts 92°
2026-04-30 00:59 37.37685 -107.15583 27105 ft 367 kts 92°
2026-04-30 01:00 37.37637 -107.12381 27115 ft 369 kts 92°
2026-04-30 01:00 37.37585 -107.09137 27119 ft 370 kts 92°
2026-04-30 01:00 37.37533 -107.05911 27120 ft 370 kts 92°
2026-04-30 01:00 37.37483 -107.02669 27123 ft 370 kts 92°
2026-04-30 01:01 37.37431 -106.99441 27113 ft 370 kts 92°
2026-04-30 01:01 37.37376 -106.96195 27102 ft 371 kts 92°
2026-04-30 01:01 37.37321 -106.92998 27102 ft 372 kts 92°
2026-04-30 01:01 37.37273 -106.89746 27089 ft 372 kts 92°
2026-04-30 01:02 37.37215 -106.86491 27079 ft 374 kts 92°
2026-04-30 01:02 37.37148 -106.83213 27072 ft 375 kts 92°
2026-04-30 01:02 37.37090 -106.79931 27067 ft 375 kts 92°
2026-04-30 01:02 37.37035 -106.76646 27049 ft 375 kts 92°
2026-04-30 01:03 37.36980 -106.73385 27051 ft 373 kts 92°
2026-04-30 01:03 37.36915 -106.70126 27038 ft 374 kts 92°
2026-04-30 01:03 37.36846 -106.66865 27020 ft 373 kts 92°
2026-04-30 01:03 37.36784 -106.63601 27010 ft 372 kts 92°
2026-04-30 01:04 37.36725 -106.60398 27001 ft 371 kts 92°
2026-04-30 01:04 37.36664 -106.57159 26997 ft 371 kts 92°
2026-04-30 01:04 37.36596 -106.53935 26995 ft 370 kts 92°
2026-04-30 01:04 37.36529 -106.50697 26997 ft 370 kts 92°
2026-04-30 01:05 37.36463 -106.47463 26989 ft 369 kts 93°
2026-04-30 01:05 37.36397 -106.44234 26994 ft 369 kts 92°
2026-04-30 01:05 37.36328 -106.41013 26994 ft 368 kts 92°
2026-04-30 01:05 37.36259 -106.37808 26991 ft 368 kts 92°
2026-04-30 01:06 37.36190 -106.34590 26982 ft 368 kts 92°
2026-04-30 01:06 37.36117 -106.31381 26974 ft 366 kts 92°
2026-04-30 01:06 37.36046 -106.28242 26979 ft 365 kts 92°
2026-04-30 01:06 37.35978 -106.25047 26980 ft 366 kts 93°
2026-04-30 01:07 37.35907 -106.21851 26983 ft 365 kts 92°
2026-04-30 01:07 37.35831 -106.18665 26989 ft 365 kts 92°
2026-04-30 01:07 37.35756 -106.15474 26989 ft 365 kts 92°
2026-04-30 01:07 37.35680 -106.12298 26997 ft 365 kts 92°
2026-04-30 01:08 37.35604 -106.09092 27007 ft 365 kts 92°
2026-04-30 01:08 37.35527 -106.05902 27014 ft 365 kts 92°
2026-04-30 01:08 37.35449 -106.02762 27025 ft 366 kts 92°
2026-04-30 01:08 37.35370 -105.99558 27034 ft 366 kts 92°
2026-04-30 01:09 37.35290 -105.96361 27043 ft 366 kts 92°
2026-04-30 01:09 37.35209 -105.93162 27052 ft 366 kts 92°
2026-04-30 01:09 37.35128 -105.89962 27056 ft 367 kts 92°
2026-04-30 01:09 37.35045 -105.86765 27055 ft 367 kts 92°
2026-04-30 01:10 37.34961 -105.83551 27058 ft 367 kts 92°
2026-04-30 01:10 37.35056 -105.80356 27045 ft 366 kts 80°
2026-04-30 01:10 37.35506 -105.77210 27043 ft 366 kts 78°
2026-04-30 01:10 37.35928 -105.74051 27038 ft 366 kts 79°
2026-04-30 01:11 37.36329 -105.70893 27031 ft 367 kts 79°
2026-04-30 01:11 37.36751 -105.67731 27023 ft 367 kts 78°
2026-04-30 01:11 37.37183 -105.64569 27015 ft 367 kts 78°
2026-04-30 01:11 37.37598 -105.61442 27006 ft 368 kts 79°
2026-04-30 01:12 37.38012 -105.58282 27000 ft 368 kts 79°
2026-04-30 01:12 37.38433 -105.55097 26990 ft 368 kts 78°
2026-04-30 01:12 37.38854 -105.51921 26982 ft 369 kts 79°
2026-04-30 01:12 37.39274 -105.48735 26971 ft 369 kts 79°
2026-04-30 01:13 37.39692 -105.45557 26970 ft 370 kts 79°
2026-04-30 01:13 37.40110 -105.42362 26965 ft 370 kts 79°
2026-04-30 01:13 37.40528 -105.39171 26964 ft 371 kts 79°
2026-04-30 01:13 37.40947 -105.35968 26968 ft 371 kts 79°
2026-04-30 01:14 37.41363 -105.32762 26969 ft 371 kts 79°
2026-04-30 01:14 37.41776 -105.29597 26974 ft 372 kts 79°
2026-04-30 01:14 37.42193 -105.26385 26983 ft 373 kts 79°
2026-04-30 01:14 37.42609 -105.23172 26982 ft 373 kts 79°
2026-04-30 01:15 37.43023 -105.19942 26989 ft 373 kts 79°
2026-04-30 01:15 37.43437 -105.16713 26989 ft 373 kts 79°
2026-04-30 01:15 37.43853 -105.13493 26991 ft 373 kts 79°
2026-04-30 01:15 37.44268 -105.10263 27000 ft 374 kts 79°
2026-04-30 01:16 37.44681 -105.07034 26998 ft 374 kts 79°
2026-04-30 01:16 37.45092 -105.03807 26999 ft 373 kts 78°
2026-04-30 01:16 37.45503 -105.00578 27002 ft 374 kts 79°
2026-04-30 01:16 37.45913 -104.97349 26999 ft 374 kts 79°
2026-04-30 01:17 37.46322 -104.94119 26998 ft 374 kts 78°
2026-04-30 01:17 37.46732 -104.90884 26994 ft 374 kts 78°
2026-04-30 01:17 37.47139 -104.87662 27001 ft 374 kts 78°
2026-04-30 01:17 37.47545 -104.84427 26995 ft 373 kts 79°
2026-04-30 01:18 37.47949 -104.81201 26998 ft 372 kts 79°
2026-04-30 01:18 37.48353 -104.77984 26995 ft 372 kts 78°
2026-04-30 01:18 37.48750 -104.74820 26994 ft 372 kts 79°
2026-04-30 01:18 37.49157 -104.71553 26990 ft 371 kts 78°
2026-04-30 01:19 37.49549 -104.68389 26988 ft 371 kts 79°
2026-04-30 01:19 37.49949 -104.65180 26989 ft 371 kts 79°
2026-04-30 01:19 37.50348 -104.61975 26995 ft 370 kts 79°
2026-04-30 01:19 37.50744 -104.58771 26998 ft 370 kts 79°
2026-04-30 01:20 37.51139 -104.55572 27001 ft 370 kts 79°
2026-04-30 01:20 37.51531 -104.52383 26999 ft 370 kts 79°
2026-04-30 01:20 37.51926 -104.49172 27002 ft 369 kts 79°
2026-04-30 01:20 37.52317 -104.45976 27006 ft 369 kts 79°
2026-04-30 01:21 37.52708 -104.42789 27010 ft 369 kts 79°
2026-04-30 01:21 37.53097 -104.39596 27009 ft 369 kts 79°
2026-04-30 01:21 37.53485 -104.36401 27013 ft 368 kts 79°
2026-04-30 01:21 37.53868 -104.33260 27012 ft 368 kts 79°
2026-04-30 01:22 37.54255 -104.30079 27015 ft 368 kts 79°
2026-04-30 01:22 37.54638 -104.26886 27012 ft 367 kts 79°
2026-04-30 01:22 37.55023 -104.23702 27016 ft 368 kts 79°
2026-04-30 01:22 37.55406 -104.20527 27016 ft 368 kts 79°
2026-04-30 01:23 37.55786 -104.17345 27009 ft 368 kts 79°
2026-04-30 01:23 37.56044 -104.15178 27008 ft 367 kts 79°
2026-04-30 01:23 37.56549 -104.10970 27003 ft 367 kts 79°
2026-04-30 01:23 37.56927 -104.07787 27003 ft 367 kts 79°
2026-04-30 01:24 37.57305 -104.04606 27004 ft 367 kts 79°
2026-04-30 01:24 37.57684 -104.01411 27006 ft 368 kts 79°
2026-04-30 01:24 37.58061 -103.98222 27004 ft 368 kts 79°
2026-04-30 01:24 37.58310 -103.96115 27007 ft 368 kts 79°
2026-04-30 01:25 37.58687 -103.92917 27011 ft 368 kts 79°
2026-04-30 01:25 37.59062 -103.89721 27009 ft 369 kts 79°
2026-04-30 01:25 37.59558 -103.85486 27014 ft 369 kts 79°
2026-04-30 01:25 37.59932 -103.82287 27015 ft 369 kts 79°
2026-04-30 01:26 37.60304 -103.79087 27015 ft 369 kts 79°
2026-04-30 01:26 37.60556 -103.76927 27015 ft 369 kts 79°
2026-04-30 01:26 37.60924 -103.73763 27015 ft 370 kts 79°
2026-04-30 01:26 37.61294 -103.70567 27015 ft 370 kts 79°
2026-04-30 01:27 37.61667 -103.67346 27021 ft 370 kts 79°
2026-04-30 01:27 37.62038 -103.64133 27024 ft 370 kts 79°
2026-04-30 01:27 37.62407 -103.60919 27023 ft 370 kts 79°
2026-04-30 01:27 37.62775 -103.57712 27026 ft 370 kts 79°
2026-04-30 01:28 37.63143 -103.54498 27025 ft 371 kts 79°
2026-04-30 01:28 37.63511 -103.51272 27029 ft 371 kts 79°
2026-04-30 01:28 37.63878 -103.48059 27028 ft 371 kts 80°
2026-04-30 01:28 37.64246 -103.44829 27031 ft 371 kts 79°
2026-04-30 01:29 37.64609 -103.41618 27032 ft 371 kts 79°
2026-04-30 01:29 37.64975 -103.38384 27030 ft 371 kts 79°
2026-04-30 01:29 37.65338 -103.35171 27031 ft 371 kts 79°
2026-04-30 01:29 37.65698 -103.31974 27031 ft 371 kts 79°
2026-04-30 01:30 37.66060 -103.28751 27032 ft 372 kts 79°
2026-04-30 01:30 37.66421 -103.25518 27029 ft 371 kts 79°
2026-04-30 01:30 37.66781 -103.22305 27030 ft 371 kts 79°
2026-04-30 01:30 37.67141 -103.19065 27030 ft 371 kts 79°
2026-04-30 01:31 37.67500 -103.15835 27026 ft 371 kts 79°
2026-04-30 01:31 37.67858 -103.12598 27027 ft 372 kts 79°
2026-04-30 01:31 37.68213 -103.09377 27028 ft 372 kts 79°
2026-04-30 01:31 37.68569 -103.06142 27025 ft 372 kts 79°
2026-04-30 01:32 37.68925 -103.02905 27023 ft 372 kts 79°
2026-04-30 01:32 37.69273 -102.99732 27027 ft 372 kts 79°
2026-04-30 01:32 37.69627 -102.96493 27024 ft 372 kts 79°
2026-04-30 01:32 37.69979 -102.93255 27022 ft 372 kts 79°
2026-04-30 01:33 37.70330 -102.90023 27024 ft 372 kts 79°
2026-04-30 01:33 37.70683 -102.86784 27025 ft 372 kts 79°
2026-04-30 01:33 37.71033 -102.83547 27024 ft 372 kts 79°
2026-04-30 01:33 37.71383 -102.80313 27025 ft 372 kts 79°
2026-04-30 01:34 37.71730 -102.77078 27025 ft 372 kts 79°
2026-04-30 01:34 37.72077 -102.73835 27026 ft 372 kts 79°
2026-04-30 01:34 37.72425 -102.70602 27031 ft 372 kts 79°
2026-04-30 01:34 37.72770 -102.67359 27031 ft 372 kts 79°
2026-04-30 01:35 37.73115 -102.64126 27032 ft 372 kts 79°
2026-04-30 01:35 37.73461 -102.60884 27032 ft 372 kts 79°
2026-04-30 01:35 37.73804 -102.57647 27035 ft 372 kts 79°
2026-04-30 01:35 37.74144 -102.54406 27035 ft 372 kts 79°
2026-04-30 01:36 37.74483 -102.51210 27036 ft 372 kts 79°
2026-04-30 01:36 37.74825 -102.47970 27035 ft 372 kts 79°
2026-04-30 01:36 37.75163 -102.44731 27040 ft 372 kts 79°
2026-04-30 01:36 37.75502 -102.41494 27042 ft 372 kts 79°
2026-04-30 01:37 37.75840 -102.38253 27043 ft 372 kts 79°
2026-04-30 01:37 37.76178 -102.35012 27044 ft 372 kts 79°
2026-04-30 01:37 37.76514 -102.31772 27050 ft 372 kts 79°
2026-04-30 01:37 37.76849 -102.28531 27047 ft 372 kts 80°
2026-04-30 01:38 37.77184 -102.25289 27053 ft 372 kts 79°
2026-04-30 01:38 37.77520 -102.22037 27057 ft 372 kts 80°
2026-04-30 01:38 37.77851 -102.18796 27052 ft 372 kts 80°
2026-04-30 01:38 37.78177 -102.15593 27057 ft 372 kts 80°
2026-04-30 01:39 37.78507 -102.12356 27056 ft 372 kts 80°
2026-04-30 01:39 37.78839 -102.09098 27064 ft 372 kts 80°
2026-04-30 01:39 37.79168 -102.05852 27071 ft 372 kts 80°
2026-04-30 01:39 37.79494 -102.02621 27074 ft 372 kts 80°
2026-04-30 01:40 37.79823 -101.99359 27077 ft 372 kts 80°
2026-04-30 01:40 37.80148 -101.96126 27082 ft 373 kts 80°
2026-04-30 01:40 37.80476 -101.92860 27083 ft 373 kts 80°
2026-04-30 01:40 37.80801 -101.89610 27084 ft 373 kts 80°
2026-04-30 01:41 37.81126 -101.86358 27089 ft 373 kts 80°
2026-04-30 01:41 37.81443 -101.83147 27092 ft 373 kts 80°
2026-04-30 01:41 37.81767 -101.79886 27086 ft 373 kts 80°
2026-04-30 01:41 37.82090 -101.76637 27091 ft 373 kts 80°
2026-04-30 01:42 37.82410 -101.73371 27093 ft 373 kts 80°
2026-04-30 01:42 37.82729 -101.70113 27090 ft 373 kts 80°
2026-04-30 01:42 37.83050 -101.66856 27097 ft 374 kts 80°
2026-04-30 01:42 37.83370 -101.63598 27096 ft 374 kts 80°
2026-04-30 01:43 37.83687 -101.60335 27096 ft 374 kts 80°
2026-04-30 01:43 37.84004 -101.57071 27095 ft 374 kts 80°
2026-04-30 01:43 37.84317 -101.53846 27096 ft 374 kts 80°
2026-04-30 01:43 37.84634 -101.50580 27096 ft 374 kts 80°
2026-04-30 01:44 37.84948 -101.47318 27095 ft 374 kts 80°
2026-04-30 01:44 37.85261 -101.44052 27098 ft 374 kts 80°
2026-04-30 01:44 37.85574 -101.40783 27100 ft 374 kts 80°
2026-04-30 01:44 37.85887 -101.37511 27101 ft 374 kts 80°
2026-04-30 01:45 37.86199 -101.34244 27099 ft 374 kts 80°
2026-04-30 01:45 37.86509 -101.30971 27101 ft 375 kts 80°
2026-04-30 01:45 37.86819 -101.27697 27107 ft 375 kts 80°
2026-04-30 01:45 37.87128 -101.24422 27105 ft 375 kts 80°
2026-04-30 01:46 37.87432 -101.21198 27106 ft 375 kts 80°
2026-04-30 01:46 37.87739 -101.17917 27105 ft 375 kts 80°
2026-04-30 01:46 37.88045 -101.14641 27108 ft 375 kts 80°
2026-04-30 01:46 37.88295 -101.11951 27107 ft 375 kts 80°
2026-04-30 01:47 37.88600 -101.08675 27111 ft 375 kts 80°
2026-04-30 01:47 37.88905 -101.05391 27113 ft 375 kts 80°
2026-04-30 01:47 37.89208 -101.02113 27114 ft 375 kts 80°
2026-04-30 01:47 37.89508 -100.98842 27116 ft 375 kts 80°
2026-04-30 01:48 37.89809 -100.95550 27119 ft 375 kts 80°
2026-04-30 01:48 37.90109 -100.92274 27115 ft 375 kts 80°
2026-04-30 01:48 37.90410 -100.88987 27118 ft 375 kts 80°
2026-04-30 01:48 37.90704 -100.85758 27120 ft 375 kts 80°
2026-04-30 01:49 37.91004 -100.82425 27118 ft 376 kts 80°
2026-04-30 01:49 37.91296 -100.79187 27118 ft 376 kts 80°
2026-04-30 01:49 37.91593 -100.75911 27121 ft 376 kts 80°
2026-04-30 01:49 37.91889 -100.72611 27120 ft 376 kts 80°
2026-04-30 01:50 37.92174 -100.69330 27122 ft 376 kts 80°
2026-04-30 01:50 37.92437 -100.66039 27121 ft 376 kts 81°
2026-04-30 01:50 37.92706 -100.62730 27122 ft 376 kts 80°
2026-04-30 01:50 37.92966 -100.59641 27121 ft 376 kts 80°
2026-04-30 01:51 37.93240 -100.56349 27119 ft 376 kts 81°
2026-04-30 01:51 37.93509 -100.53048 27122 ft 376 kts 80°
2026-04-30 01:51 37.93773 -100.49802 27124 ft 376 kts 80°
2026-04-30 01:51 37.94042 -100.46513 27126 ft 376 kts 80°
2026-04-30 01:52 37.94311 -100.43202 27125 ft 376 kts 80°
2026-04-30 01:52 37.94577 -100.39903 27127 ft 376 kts 80°
2026-04-30 01:52 37.94842 -100.36612 27130 ft 376 kts 80°
2026-04-30 01:52 37.95108 -100.33308 27132 ft 376 kts 80°
2026-04-30 01:53 37.95372 -100.30013 27142 ft 376 kts 80°
2026-04-30 01:53 37.95635 -100.26714 27144 ft 376 kts 80°
2026-04-30 01:53 37.95895 -100.23426 27145 ft 376 kts 80°
2026-04-30 01:53 37.96158 -100.20126 27148 ft 376 kts 80°
2026-04-30 01:54 37.96413 -100.16876 27152 ft 376 kts 80°
2026-04-30 01:54 37.96676 -100.13531 27151 ft 376 kts 80°
2026-04-30 01:54 37.96932 -100.10249 27154 ft 376 kts 80°
2026-04-30 01:54 37.97186 -100.06988 27157 ft 376 kts 80°
2026-04-30 01:55 37.97442 -100.03701 27161 ft 376 kts 80°
2026-04-30 01:55 37.97717 -100.00363 27158 ft 375 kts 79°
2026-04-30 01:55 37.97982 -99.97078 27168 ft 375 kts 80°
2026-04-30 01:55 37.98226 -99.93775 27175 ft 375 kts 81°
2026-04-30 01:56 37.98471 -99.90488 27179 ft 375 kts 80°
2026-04-30 01:56 37.98727 -99.87198 27178 ft 375 kts 80°
2026-04-30 01:56 37.98975 -99.83944 27185 ft 375 kts 80°
2026-04-30 01:56 37.99225 -99.80608 27189 ft 375 kts 81°
2026-04-30 01:57 37.99468 -99.77375 27191 ft 375 kts 80°
2026-04-30 01:57 37.99716 -99.74070 27203 ft 375 kts 80°
2026-04-30 01:57 37.99962 -99.70781 27210 ft 375 kts 80°
2026-04-30 01:57 38.00206 -99.67490 27223 ft 375 kts 80°
2026-04-30 01:58 38.00451 -99.64209 27232 ft 375 kts 80°
2026-04-30 01:58 38.00729 -99.60922 27236 ft 372 kts 76°
2026-04-30 01:58 38.01273 -99.57736 27233 ft 370 kts 72°
2026-04-30 01:58 38.01761 -99.54584 27236 ft 371 kts 74°
2026-04-30 01:59 38.02619 -99.48139 27244 ft 373 kts 80°
2026-04-30 01:59 38.02772 -99.45133 27245 ft 373 kts 83°
2026-04-30 01:59 38.03044 -99.41840 27247 ft 371 kts 78°
2026-04-30 02:00 38.03352 -99.38688 27245 ft 372 kts 78°
2026-04-30 02:00 38.03664 -99.35459 27238 ft 371 kts 77°
2026-04-30 02:00 38.03991 -99.32200 27232 ft 371 kts 77°
2026-04-30 02:00 38.04307 -99.29053 27223 ft 371 kts 77°
2026-04-30 02:01 38.04634 -99.25814 27211 ft 370 kts 77°
2026-04-30 02:01 38.04961 -99.22565 27201 ft 370 kts 77°
2026-04-30 02:01 38.05284 -99.19372 27201 ft 370 kts 77°
2026-04-30 02:01 38.05609 -99.16146 27190 ft 370 kts 77°
2026-04-30 02:02 38.05937 -99.12921 27185 ft 369 kts 76°
2026-04-30 02:02 38.06352 -99.09715 27192 ft 365 kts 70°
2026-04-30 02:02 38.07087 -99.06662 27200 ft 360 kts 62°
2026-04-30 02:02 38.07917 -99.03748 27193 ft 360 kts 63°
2026-04-30 02:03 38.08570 -99.00994 27167 ft 363 kts 68°
2026-04-30 02:03 38.09218 -98.97574 27156 ft 365 kts 69°
2026-04-30 02:03 38.09871 -98.94447 27159 ft 362 kts 67°
2026-04-30 02:03 38.10577 -98.91319 27164 ft 363 kts 68°
2026-04-30 02:04 38.11269 -98.88243 27165 ft 363 kts 68°
2026-04-30 02:04 38.11947 -98.85212 27170 ft 363 kts 68°
2026-04-30 02:04 38.12636 -98.82116 27175 ft 363 kts 68°
2026-04-30 02:04 38.13319 -98.79028 27176 ft 363 kts 68°
2026-04-30 02:05 38.13999 -98.75936 27176 ft 363 kts 68°
2026-04-30 02:05 38.14673 -98.72850 27178 ft 363 kts 68°
2026-04-30 02:05 38.15342 -98.69757 27180 ft 364 kts 68°
2026-04-30 02:05 38.16007 -98.66661 27186 ft 364 kts 68°
2026-04-30 02:06 38.16671 -98.63549 27183 ft 364 kts 69°
2026-04-30 02:06 38.17330 -98.60443 27181 ft 364 kts 69°
2026-04-30 02:06 38.17982 -98.57356 27180 ft 364 kts 69°
2026-04-30 02:06 38.18639 -98.54233 27181 ft 364 kts 69°
2026-04-30 02:07 38.19291 -98.51125 27178 ft 365 kts 69°
2026-04-30 02:07 38.19932 -98.48059 27178 ft 366 kts 69°
2026-04-30 02:07 38.20597 -98.44880 27179 ft 366 kts 69°
2026-04-30 02:07 38.21241 -98.41797 27180 ft 367 kts 69°
2026-04-30 02:08 38.21908 -98.38610 27180 ft 367 kts 69°
2026-04-30 02:08 38.22552 -98.35528 27180 ft 367 kts 69°
2026-04-30 02:08 38.23212 -98.32377 27181 ft 367 kts 69°
2026-04-30 02:08 38.23858 -98.29291 27179 ft 367 kts 69°
2026-04-30 02:09 38.24529 -98.26099 27180 ft 367 kts 69°
2026-04-30 02:09 38.25186 -98.22977 27180 ft 367 kts 69°
2026-04-30 02:09 38.25848 -98.19840 27181 ft 366 kts 69°
2026-04-30 02:09 38.26513 -98.16697 27183 ft 366 kts 69°
2026-04-30 02:10 38.27173 -98.13579 27180 ft 366 kts 69°
2026-04-30 02:10 38.27838 -98.10440 27180 ft 366 kts 69°
2026-04-30 02:10 38.28490 -98.07356 27180 ft 366 kts 69°
2026-04-30 02:10 38.29161 -98.04187 27181 ft 366 kts 69°
2026-04-30 02:11 38.29814 -98.01100 27176 ft 366 kts 69°
2026-04-30 02:11 38.30472 -97.97980 27176 ft 365 kts 69°
2026-04-30 02:11 38.31128 -97.94859 27176 ft 365 kts 69°
2026-04-30 02:11 38.31783 -97.91733 27177 ft 365 kts 69°
2026-04-30 02:12 38.32436 -97.88605 27175 ft 365 kts 69°
2026-04-30 02:12 38.33085 -97.85485 27179 ft 365 kts 69°
2026-04-30 02:12 38.33731 -97.82361 27180 ft 364 kts 69°
2026-04-30 02:12 38.34371 -97.79242 27171 ft 363 kts 69°
2026-04-30 02:13 38.35007 -97.76127 26948 ft 364 kts 70°
2026-04-30 02:13 38.35632 -97.73032 26599 ft 359 kts 70°
2026-04-30 02:13 38.36244 -97.69973 26251 ft 355 kts 70°
2026-04-30 02:13 38.36809 -97.67012 25879 ft 353 kts 69°
2026-04-30 02:14 38.37443 -97.64019 25538 ft 349 kts 69°
2026-04-30 02:14 38.38065 -97.61082 25208 ft 348 kts 69°
2026-04-30 02:14 38.38693 -97.58099 24871 ft 347 kts 69°
2026-04-30 02:14 38.39310 -97.55150 24550 ft 345 kts 70°
2026-04-30 02:15 38.39924 -97.52194 24231 ft 344 kts 70°
2026-04-30 02:15 38.40535 -97.49243 23850 ft 344 kts 70°
2026-04-30 02:15 38.41144 -97.46294 23387 ft 343 kts 70°
2026-04-30 02:15 38.41748 -97.43358 22896 ft 341 kts 70°
2026-04-30 02:16 38.42345 -97.40442 22416 ft 339 kts 70°
2026-04-30 02:16 38.42935 -97.37547 21943 ft 337 kts 71°
2026-04-30 02:16 38.43522 -97.34661 21477 ft 335 kts 71°
2026-04-30 02:16 38.44097 -97.31820 21021 ft 334 kts 71°
2026-04-30 02:17 38.44668 -97.28991 20845 ft 323 kts 71°
2026-04-30 02:17 38.45204 -97.26283 20853 ft 309 kts 71°
2026-04-30 02:17 38.45718 -97.23646 20851 ft 300 kts 71°
2026-04-30 02:17 38.46210 -97.21100 20851 ft 292 kts 71°
2026-04-30 02:18 38.46701 -97.18561 20852 ft 300 kts 71°
2026-04-30 02:18 38.47218 -97.15932 20857 ft 309 kts 71°
2026-04-30 02:18 38.47753 -97.13246 20863 ft 316 kts 71°
2026-04-30 02:18 38.48298 -97.10537 20868 ft 321 kts 71°
2026-04-30 02:19 38.48862 -97.07760 20863 ft 326 kts 71°
2026-04-30 02:19 38.49437 -97.04946 20863 ft 329 kts 71°
2026-04-30 02:19 38.50020 -97.02105 20865 ft 332 kts 71°
2026-04-30 02:19 38.50624 -96.99268 20858 ft 331 kts 67°
2026-04-30 02:20 38.51561 -96.96596 20856 ft 328 kts 57°
2026-04-30 02:20 38.52584 -96.93987 20859 ft 330 kts 60°
2026-04-30 02:20 38.53348 -96.91192 20853 ft 337 kts 71°
2026-04-30 02:20 38.53822 -96.88254 20854 ft 340 kts 76°
2026-04-30 02:21 38.54241 -96.85277 20855 ft 340 kts 75°
2026-04-30 02:21 38.54788 -96.82346 20856 ft 340 kts 70°
2026-04-30 02:21 38.55409 -96.79434 20860 ft 340 kts 71°
2026-04-30 02:21 38.55978 -96.76482 20863 ft 342 kts 72°
2026-04-30 02:22 38.56500 -96.73560 20864 ft 343 kts 73°
2026-04-30 02:22 38.57053 -96.70605 20866 ft 343 kts 72°
2026-04-30 02:22 38.57628 -96.67636 20866 ft 344 kts 72°
2026-04-30 02:22 38.58191 -96.64661 20866 ft 344 kts 72°
2026-04-30 02:23 38.58741 -96.61709 20868 ft 345 kts 72°
2026-04-30 02:23 38.59304 -96.58705 20867 ft 345 kts 72°
2026-04-30 02:23 38.59866 -96.55724 20866 ft 345 kts 72°
2026-04-30 02:23 38.60423 -96.52750 20868 ft 346 kts 72°
2026-04-30 02:24 38.60978 -96.49779 20862 ft 346 kts 72°
2026-04-30 02:24 38.61537 -96.46790 20864 ft 346 kts 72°
2026-04-30 02:24 38.62095 -96.43798 20868 ft 346 kts 72°
2026-04-30 02:24 38.62651 -96.40807 20871 ft 346 kts 72°
2026-04-30 02:25 38.63208 -96.37810 20869 ft 346 kts 72°
2026-04-30 02:25 38.63761 -96.34834 20871 ft 347 kts 72°
2026-04-30 02:25 38.64322 -96.31806 20875 ft 347 kts 73°
2026-04-30 02:25 38.64878 -96.28799 20869 ft 347 kts 73°
2026-04-30 02:26 38.65433 -96.25792 20873 ft 348 kts 73°
2026-04-30 02:26 38.65985 -96.22791 20872 ft 347 kts 73°
2026-04-30 02:26 38.66542 -96.19775 20834 ft 349 kts 73°
2026-04-30 02:26 38.67096 -96.16760 20499 ft 346 kts 73°
2026-04-30 02:27 38.67640 -96.13782 20000 ft 340 kts 73°
2026-04-30 02:27 38.68157 -96.10962 19530 ft 335 kts 73°
2026-04-30 02:27 38.68685 -96.08086 19048 ft 326 kts 73°
2026-04-30 02:27 38.69190 -96.05313 18495 ft 315 kts 73°
2026-04-30 02:28 38.69681 -96.02615 17817 ft 306 kts 73°
2026-04-30 02:28 38.70155 -96.00024 17164 ft 300 kts 72°
2026-04-30 02:28 38.70623 -95.97454 16518 ft 295 kts 72°
2026-04-30 02:28 38.71085 -95.94920 15884 ft 290 kts 72°
2026-04-30 02:29 38.71540 -95.92416 15267 ft 287 kts 72°
2026-04-30 02:29 38.71984 -95.89936 14676 ft 283 kts 73°
2026-04-30 02:29 38.72414 -95.87489 14099 ft 280 kts 73°
2026-04-30 02:29 38.72837 -95.85063 13466 ft 277 kts 73°
2026-04-30 02:30 38.73267 -95.82594 13006 ft 291 kts 73°
2026-04-30 02:30 38.73708 -95.80067 13011 ft 291 kts 73°
2026-04-30 02:30 38.74148 -95.77537 13012 ft 291 kts 73°
2026-04-30 02:30 38.74588 -95.75002 13011 ft 293 kts 73°
2026-04-30 02:31 38.74977 -95.72758 13013 ft 294 kts 73°
2026-04-30 02:31 38.75323 -95.70758 13014 ft 294 kts 73°
2026-04-30 02:31 38.75499 -95.69737 13009 ft 295 kts 73°
2026-04-30 02:32 38.75831 -95.67808 13102 ft 291 kts 71°
2026-04-30 02:32 38.76321 -95.65287 13137 ft 291 kts 70°
2026-04-30 02:32 38.76804 -95.62862 13139 ft 292 kts 70°
2026-04-30 02:33 38.77280 -95.60486 13143 ft 293 kts 70°
2026-04-30 02:33 38.77788 -95.57940 13138 ft 293 kts 70°
2026-04-30 02:33 38.78296 -95.55420 13135 ft 293 kts 70°
2026-04-30 02:33 38.78805 -95.52887 13145 ft 293 kts 70°
2026-04-30 02:34 38.79303 -95.50401 13141 ft 294 kts 70°
2026-04-30 02:34 38.79810 -95.47862 13137 ft 294 kts 71°
2026-04-30 02:34 38.80242 -95.45339 13143 ft 295 kts 72°
2026-04-30 02:34 38.80700 -95.42813 13139 ft 294 kts 71°
2026-04-30 02:35 38.81181 -95.40231 13144 ft 294 kts 71°
2026-04-30 02:35 38.81657 -95.37676 13142 ft 294 kts 71°
2026-04-30 02:35 38.82133 -95.35126 13140 ft 294 kts 71°
2026-04-30 02:35 38.82608 -95.32570 13136 ft 294 kts 71°
2026-04-30 02:36 38.83083 -95.30016 13138 ft 294 kts 71°
2026-04-30 02:36 38.83553 -95.27479 13137 ft 294 kts 71°
2026-04-30 02:36 38.84284 -95.25067 13164 ft 285 kts 54°
2026-04-30 02:36 38.85309 -95.22899 13157 ft 284 kts 50°
2026-04-30 02:37 38.86361 -95.20791 13139 ft 285 kts 50°
2026-04-30 02:37 38.87456 -95.18627 12785 ft 295 kts 50°
2026-04-30 02:37 38.88580 -95.16436 12380 ft 303 kts 50°
2026-04-30 02:37 38.89781 -95.14128 11967 ft 307 kts 50°
2026-04-30 02:38 38.90985 -95.11837 11562 ft 310 kts 50°
2026-04-30 02:38 38.92201 -95.09552 11103 ft 312 kts 50°
2026-04-30 02:38 38.93437 -95.07253 10614 ft 314 kts 50°
2026-04-30 02:38 38.94681 -95.04958 10131 ft 314 kts 50°
2026-04-30 02:39 38.95933 -95.02679 9735 ft 310 kts 50°
2026-04-30 02:39 38.97161 -95.00449 9505 ft 301 kts 50°
2026-04-30 02:39 38.98280 -94.98385 9242 ft 274 kts 50°
2026-04-30 02:39 38.99322 -94.96426 8964 ft 259 kts 50°
2026-04-30 02:40 39.00330 -94.94512 8689 ft 249 kts 50°
2026-04-30 02:40 39.01290 -94.92677 8435 ft 247 kts 50°
2026-04-30 02:40 39.02250 -94.90844 8175 ft 245 kts 50°
2026-04-30 02:40 39.03193 -94.89041 7920 ft 244 kts 50°
2026-04-30 02:41 39.04130 -94.87253 7669 ft 243 kts 50°
2026-04-30 02:41 39.05071 -94.85459 7417 ft 243 kts 50°
2026-04-30 02:41 39.06015 -94.83662 7164 ft 241 kts 50°
2026-04-30 02:41 39.06953 -94.81876 6919 ft 240 kts 50°
2026-04-30 02:42 39.07887 -94.80093 6674 ft 240 kts 50°
2026-04-30 02:42 39.08731 -94.78376 6414 ft 241 kts 58°
2026-04-30 02:42 39.09055 -94.76230 6083 ft 252 kts 86°
2026-04-30 02:42 39.08578 -94.74046 5606 ft 259 kts 114°
2026-04-30 02:43 39.07391 -94.72344 5143 ft 256 kts 140°
2026-04-30 02:43 39.05960 -94.71143 4703 ft 240 kts 144°
2026-04-30 02:43 39.04749 -94.69846 4174 ft 215 kts 123°
2026-04-30 02:43 39.04145 -94.68213 3665 ft 197 kts 104°
2026-04-30 02:44 39.03934 -94.66518 3185 ft 185 kts 86°
2026-04-30 02:44 39.04064 -94.65074 3152 ft 140 kts 73°
2026-04-30 02:44 39.04345 -94.64014 3131 ft 113 kts 63°
2026-04-30 02:44 39.04711 -94.63163 3141 ft 107 kts 53°
2026-04-30 02:45 39.05190 -94.62343 2882 ft 128 kts 47°
2026-04-30 02:45 39.05875 -94.61501 2518 ft 140 kts 36°
2026-04-30 02:45 39.06709 -94.60972 2211 ft 133 kts 16°
2026-04-30 02:45 39.07597 -94.60715 1828 ft 129 kts 14°
2026-04-30 02:46 39.08439 -94.60422 1565 ft 123 kts 11°
2026-04-30 02:46 39.09266 -94.60184 1429 ft 121 kts 12°
2026-04-30 02:46 39.10053 -94.59950 1205 ft 114 kts 11°
2026-04-30 02:46 39.10810 -94.59735 979 ft 109 kts 13°
2026-04-30 02:47 39.11540 -94.59517 769 ft 105 kts 13°
2026-04-30 02:47 39.12176 -94.59330 748 ft 84 kts 10°
2026-04-30 02:47 39.12633 -94.59201 751 ft 48 kts 14°
2026-04-30 02:47 39.12825 -94.59127 755 ft 12 kts 10°
2026-04-30 02:48 39.12879 -94.59072 753 ft 11 kts 89°
2026-04-30 02:48 39.12865 -94.58963 750 ft 13 kts 100°
2026-04-30 02:48 39.12838 -94.58874 748 ft 10 kts 134°
2026-04-30 02:48 39.12766 -94.58864 750 ft 10 kts 177°
2026-04-30 02:49 39.12698 -94.58874 750 ft 14 kts 184°
2026-04-30 02:49 39.12589 -94.58884 751 ft 15 kts 188°
2026-04-30 02:49 39.12485 -94.58893 751 ft 17 kts 190°
2026-04-30 02:49 39.12365 -94.58929 752 ft 15 kts 235°
2026-04-30 02:50 39.12296 -94.59016 752 ft 17 kts 216°
2026-04-30 02:50 39.12186 -94.59126 748 ft 23 kts 219°
2026-04-30 02:50 39.12040 -94.59224 749 ft 25 kts 186°
2026-04-30 02:50 39.11854 -94.59273 745 ft 27 kts 192°
2026-04-30 02:51 39.11685 -94.59325 746 ft 23 kts 193°
2026-04-30 02:51 39.11550 -94.59345 747 ft 15 kts 127°
2026-04-30 02:51 39.11582 -94.59286 746 ft 9 kts
2026-04-30 02:51 39.11633 -94.59272 746 ft 6 kts 11°
2026-04-30 02:52 39.11665 -94.59259 746 ft 5 kts 57°
2026-04-30 02:52 39.11658 -94.59210 746 ft 7 kts 127°
2026-04-30 02:52 39.11630 -94.59213 746 ft 0 kts 282°